Weather History for Boone, NC

Change the Weather History Date:

Sunday, January 19, 2014

  Actual Average (KGEV) Record (KGEV)
Temperature  
Mean Temperature 32 °F -  
Max Temperature 34 °F 40 °F 58 °F (1974)
Min Temperature 29 °F 23 °F -3 °F (1976)
Degree Days  
Heating Degree Days 34    
Moisture  
Dew Point 21 °F    
Average Humidity 63    
Maximum Humidity 96    
Minimum Humidity 47    
Precipitation  
Precipitation 0.00 in - - ()
Sea Level Pressure  
Sea Level Pressure 29.86 in    
Wind  
Wind Speed 10 mph (West)    
Max Wind Speed 29 mph    
Max Gust Speed 45 mph    
Visibility 10 miles    
Events Snow    
Averages and records for this station are not official NWS values.
T = Trace of Precipitation, MM = Missing Value Source: NWS Daily Summary

Daily Weather History Graph

Daily Weather History Graph

Search for Another Location

Airport:

Trip Planner

Search our weather history database for the weather conditions in past years. The results will help you decide how hot, cold, wet, or windy it might be!

Date:

Astronomy

Jan. 19, 2014 Rise Set
Actual Time 7:35 AM EST 5:39 PM EST
Civil Twilight 7:07 AM EST 6:07 PM EST
Nautical Twilight 6:36 AM EST 6:38 PM EST
Astronomical Twilight 6:05 AM EST 7:09 PM EST
Moon 9:08 PM EST (1/19) 9:11 AM EST (1/19)
Length of Visible Light 10h 59m
Length of Day
10h 04m
Waning Gibbous, 89% of the Moon is Illuminated
Jan 19
Waning Gibbous
Jan 24
Last Quarter
Jan 30
New
Feb 6
First Quarter
Feb 14
Full

Hourly Weather History & Observations

Time (EST) Temp. Windchill Dew Point Humidity Pressure Visibility Wind Dir Wind Speed Gust Speed Precip Events Conditions
12:15 AM 32.0 °F - 15.3 °F 50% 29.82 in 10.0 mi Calm Calm - N/A   Scattered Clouds
12:35 AM 31.6 °F 26.0 °F 16.2 °F 53% 29.81 in 10.0 mi WNW 5.8 mph - N/A   Mostly Cloudy
12:55 AM 32.7 °F 27.3 °F 15.8 °F 50% 29.81 in 10.0 mi West 5.8 mph - N/A   Mostly Cloudy
1:15 AM 34.0 °F 26.0 °F 15.6 °F 47% 29.81 in 10.0 mi West 10.4 mph 18.4 mph N/A   Scattered Clouds
1:35 AM 34.7 °F 25.9 °F 16.2 °F 47% 29.80 in 10.0 mi West 12.7 mph 17.3 mph N/A   Scattered Clouds
1:55 AM 34.3 °F 24.2 °F 17.8 °F 51% 29.81 in 10.0 mi West 16.1 mph 31.1 mph N/A   Scattered Clouds
2:15 AM 33.3 °F 24.1 °F 20.3 °F 59% 29.81 in 10.0 mi West 12.7 mph 23.0 mph N/A   Scattered Clouds
2:35 AM 32.2 °F 28.9 °F 18.1 °F 56% 29.81 in 10.0 mi South 3.5 mph - N/A   Mostly Cloudy
2:55 AM 32.0 °F 27.5 °F 18.7 °F 58% 29.80 in 10.0 mi SW 4.6 mph - N/A   Mostly Cloudy
3:15 AM 34.0 °F 27.2 °F 17.6 °F 51% 29.81 in 10.0 mi West 8.1 mph - N/A   Scattered Clouds
3:35 AM 33.8 °F 25.3 °F 18.0 °F 52% 29.81 in 10.0 mi West 11.5 mph 18.4 mph N/A   Clear
3:55 AM 33.8 °F 26.4 °F 18.1 °F 53% 29.80 in 10.0 mi West 9.2 mph 19.6 mph N/A   Clear
4:15 AM 33.3 °F 26.4 °F 18.9 °F 56% 29.80 in 10.0 mi West 8.1 mph - N/A   Clear
4:35 AM 32.4 °F 25.3 °F 19.2 °F 58% 29.80 in 10.0 mi West 8.1 mph - N/A   Clear
4:55 AM 32.0 °F 24.8 °F 20.1 °F 62% 29.80 in 10.0 mi WNW 8.1 mph - N/A   Clear
5:15 AM 31.6 °F 28.3 °F 20.7 °F 64% 29.80 in 10.0 mi West 3.5 mph - N/A   Clear
5:35 AM 31.1 °F 24.5 °F 21.0 °F 66% 29.80 in 10.0 mi West 6.9 mph - N/A   Clear
5:55 AM 30.4 °F 22.9 °F 22.5 °F 72% 29.81 in 5.0 mi West 8.1 mph - N/A Snow Light Snow
6:15 AM 29.3 °F 23.2 °F 24.1 °F 81% 29.81 in 5.0 mi West 5.8 mph - N/A Snow Light Snow
6:35 AM 29.1 °F 24.1 °F 25.3 °F 86% 29.82 in 3.0 mi West 4.6 mph - N/A Snow Light Snow
6:55 AM 29.3 °F 23.2 °F 26.1 °F 88% 29.82 in 2.0 mi West 5.8 mph - N/A Snow Light Snow
7:15 AM 29.1 °F 23.0 °F 28.2 °F 96% 29.82 in 7.0 mi West 5.8 mph - N/A Snow Light Snow
7:35 AM 29.1 °F 20.6 °F 28.2 °F 96% 29.82 in 10.0 mi WNW 9.2 mph - N/A   Clear
7:55 AM 29.3 °F 19.6 °F 27.9 °F 94% 29.82 in 10.0 mi West 11.5 mph 16.1 mph N/A   Clear
8:15 AM 30.2 °F 23.4 °F 26.1 °F 85% 29.82 in 10.0 mi WNW 6.9 mph - N/A   Clear
8:35 AM 30.9 °F 20.2 °F 25.0 °F 79% 29.83 in 10.0 mi WNW 15.0 mph 21.9 mph N/A Snow Light Snow
8:55 AM 30.7 °F 19.2 °F 24.8 °F 79% 29.83 in 7.0 mi WNW 17.3 mph 24.2 mph N/A Snow Light Snow
9:15 AM 31.1 °F 17.7 °F 23.7 °F 74% 29.84 in 7.0 mi WNW 24.2 mph 32.2 mph N/A   Clear
9:35 AM 32.0 °F 19.2 °F 23.4 °F 70% 29.85 in 10.0 mi WNW 23.0 mph 31.1 mph N/A Snow Light Snow
9:55 AM 32.0 °F 19.2 °F 22.8 °F 69% 29.86 in 10.0 mi WNW 23.0 mph 29.9 mph N/A Snow Light Snow
10:15 AM 32.2 °F 19.7 °F 23.0 °F 69% 29.87 in 10.0 mi WNW 21.9 mph 31.1 mph N/A Snow Light Snow
10:35 AM 32.2 °F 20.0 °F 22.6 °F 68% 29.88 in 10.0 mi WNW 20.7 mph 32.2 mph N/A Snow Light Snow
10:55 AM 32.0 °F 19.5 °F 22.6 °F 68% 29.88 in 10.0 mi WNW 21.9 mph 31.1 mph N/A   Clear
11:15 AM 32.5 °F 21.5 °F 22.5 °F 66% 29.89 in 10.0 mi WNW 17.3 mph 27.6 mph N/A   Clear
11:35 AM 32.5 °F 21.5 °F 22.6 °F 67% 29.89 in 10.0 mi WNW 17.3 mph 28.8 mph N/A   Scattered Clouds
11:55 AM 32.2 °F 21.4 °F 22.3 °F 67% 29.89 in 10.0 mi WNW 16.1 mph 24.2 mph N/A   Scattered Clouds
12:15 PM 32.5 °F 21.5 °F 22.3 °F 66% 29.89 in 10.0 mi WNW 17.3 mph 26.5 mph N/A   Scattered Clouds
12:35 PM 32.0 °F 20.8 °F 21.9 °F 66% 29.88 in 10.0 mi WNW 17.3 mph 28.8 mph N/A   Scattered Clouds
12:55 PM 33.8 °F 23.2 °F 22.6 °F 64% 29.88 in 10.0 mi WNW 17.3 mph 26.5 mph N/A   Scattered Clouds
1:15 PM 33.1 °F 22.2 °F 21.7 °F 63% 29.88 in 10.0 mi WNW 17.3 mph 24.2 mph N/A   Scattered Clouds
1:35 PM 32.4 °F 23.5 °F 21.4 °F 64% 29.89 in 10.0 mi NW 11.5 mph 26.5 mph N/A   Scattered Clouds
1:55 PM 32.0 °F 25.6 °F 22.1 °F 67% 29.89 in 10.0 mi WNW 6.9 mph 21.9 mph N/A   Scattered Clouds
2:15 PM 32.0 °F 20.8 °F 21.6 °F 65% 29.89 in 10.0 mi WNW 17.3 mph 21.9 mph N/A   Scattered Clouds
2:35 PM 32.4 °F 25.3 °F 21.2 °F 63% 29.90 in 10.0 mi West 8.1 mph 24.2 mph N/A   Scattered Clouds
2:55 PM 33.6 °F 24.1 °F 21.4 °F 61% 29.89 in 10.0 mi WNW 13.8 mph 24.2 mph N/A   Scattered Clouds
3:15 PM 34.3 °F 25.9 °F 21.6 °F 60% 29.90 in 10.0 mi West 11.5 mph 16.1 mph N/A   Scattered Clouds
3:35 PM 33.8 °F 23.9 °F 21.2 °F 60% 29.91 in 10.0 mi WNW 15.0 mph 24.2 mph N/A   Clear
3:55 PM 34.5 °F 24.1 °F 21.2 °F 58% 29.91 in 10.0 mi WNW 17.3 mph 25.3 mph N/A   Clear
4:15 PM 34.5 °F 24.5 °F 21.0 °F 58% 29.91 in 10.0 mi WNW 16.1 mph 23.0 mph N/A   Clear
4:35 PM 34.7 °F 26.4 °F 21.2 °F 58% 29.92 in 10.0 mi WNW 11.5 mph 18.4 mph N/A   Clear
4:55 PM 34.7 °F 26.9 °F 21.2 °F 58% 29.92 in 10.0 mi WNW 10.4 mph - N/A   Clear
5:15 PM 34.2 °F 26.2 °F 21.2 °F 59% 29.92 in 10.0 mi WNW 10.4 mph - N/A   Clear
5:35 PM 33.8 °F 25.3 °F 21.0 °F 60% 29.92 in 10.0 mi West 11.5 mph - N/A   Clear
5:55 PM 33.8 °F 27.0 °F 20.7 °F 59% 29.92 in 10.0 mi WNW 8.1 mph - N/A   Clear
6:15 PM 33.8 °F 28.6 °F 19.8 °F 56% 29.92 in 10.0 mi West 5.8 mph 9.2 mph N/A   Clear
6:35 PM 33.6 °F 28.4 °F 18.9 °F 55% 29.92 in 10.0 mi West 5.8 mph - N/A   Clear
6:55 PM 33.1 °F 26.1 °F 19.6 °F 58% 29.93 in 10.0 mi West 8.1 mph - N/A   Clear
7:15 PM 32.9 °F 25.9 °F 20.1 °F 59% 29.92 in 10.0 mi West 8.1 mph - N/A   Clear
7:55 PM 32.5 °F 28.1 °F 19.8 °F 59% 29.92 in 10.0 mi West 4.6 mph 9.2 mph N/A   Clear
8:15 PM 32.4 °F 26.0 °F 19.4 °F 59% 29.92 in 10.0 mi West 6.9 mph - N/A   Clear
8:35 PM 32.4 °F 26.9 °F 19.2 °F 58% 29.92 in 10.0 mi West 5.8 mph - N/A   Clear
8:55 PM 32.2 °F - 18.5 °F 57% 29.91 in 10.0 mi Calm Calm - N/A   Clear
9:15 PM 32.0 °F 25.6 °F 17.8 °F 56% 29.91 in 10.0 mi West 6.9 mph - N/A   Clear
9:35 PM 32.0 °F 25.6 °F 17.2 °F 55% 29.91 in 10.0 mi West 6.9 mph - N/A   Clear
9:55 PM 32.0 °F 23.6 °F 17.1 °F 54% 29.91 in 10.0 mi West 10.4 mph - N/A   Clear
10:15 PM 32.0 °F 23.6 °F 16.7 °F 53% 29.89 in 10.0 mi West 10.4 mph 18.4 mph N/A   Clear
10:35 PM 32.0 °F 21.2 °F 16.9 °F 54% 29.88 in 10.0 mi West 16.1 mph 25.3 mph N/A   Clear
10:55 PM 32.2 °F 19.4 °F 16.5 °F 53% 29.88 in 10.0 mi WNW 23.0 mph 33.4 mph N/A   Clear
11:15 PM 32.4 °F 19.1 °F 15.8 °F 51% 29.87 in 10.0 mi WNW 25.3 mph 34.5 mph N/A   Clear
11:35 PM 32.9 °F 20.1 °F 14.9 °F 48% 29.86 in 10.0 mi WNW 24.2 mph 44.9 mph N/A   Clear
11:55 PM 32.9 °F 19.1 °F 14.7 °F 47% 29.85 in 10.0 mi WNW 28.8 mph 34.5 mph N/A   Clear